This is the latest recevied weather packets stored in our database for station/object N4DBJ. If no packets are shown the sender has not sent any weather packets the latest 10 day(s).
| Time | Temp. | Humidity | Pressure | Rain* | Wind** | Luminosity | Snow |
|---|---|---|---|---|---|---|---|
| 1777476447 | 20.56° C | 93% | 1009.8 hPa | 0 mm | - | 102 W/m² | - |
| 1777476144 | 20.56° C | 92% | 1009.8 hPa | 0 mm | - | 187 W/m² | - |
| 1777475840 | 20.56° C | 93% | 1009.8 hPa | 0 mm | - | 350 W/m² | - |
| 1777475536 | 20.56° C | 92% | 1009.8 hPa | 0 mm | - | 156 W/m² | - |
| 1777475232 | 20.56° C | 93% | 1009.6 hPa | 0 mm | - | 358 W/m² | - |
| 1777474928 | 20° C | 94% | 1009.7 hPa | 0 mm | - | 993 W/m² | - |
| 1777474624 | 20° C | 95% | 1010 hPa | 0 mm | - | 223 W/m² | - |
| 1777474321 | 20° C | 97% | 1009.8 hPa | 0 mm | - | 536 W/m² | - |
| 1777474017 | 19.44° C | 96% | 1009.8 hPa | 0 mm | - | 485 W/m² | - |
| 1777473715 | 18.89° C | 97% | 1009.7 hPa | 0 mm | - | 144 W/m² | - |
| 1777473411 | 18.89° C | 97% | 1009.7 hPa | 0 mm | - | 81 W/m² | - |
| 1777473107 | 18.89° C | 98% | 1009.6 hPa | 0 mm | - | 128 W/m² | - |
| 1777472804 | 18.89° C | 98% | 1009.7 hPa | 0 mm | - | 120 W/m² | - |
| 1777472500 | 18.89° C | 98% | 1009.4 hPa | 0 mm | - | 67 W/m² | - |
| 1777472198 | 18.89° C | 98% | 1009.3 hPa | 0 mm | - | 42 W/m² | - |
| 1777471893 | 18.89° C | 98% | 1009.4 hPa | 0 mm | - | 59 W/m² | - |
| 1777471590 | 18.89° C | 97% | 1009.3 hPa | 0 mm | - | 97 W/m² | - |
| 1777471287 | 18.89° C | 97% | 1009.3 hPa | 0 mm | - | 83 W/m² | - |
| 1777470983 | 18.89° C | 97% | 1009 hPa | 0 mm | - | 71 W/m² | - |
| 1777470680 | 18.89° C | 97% | 1009 hPa | 0 mm | - | 70 W/m² | - |
| 1777470376 | 18.89° C | 97% | 1009 hPa | 0 mm | - | 69 W/m² | - |
| 1777470073 | 18.89° C | 97% | 1009 hPa | 0 mm | - | 207 W/m² | - |
| 1777469769 | 18.89° C | 98% | 1008.8 hPa | 0 mm | - | 195 W/m² | - |
| 1777469465 | 18.33° C | 99% | 1008.9 hPa | 0 mm | - | 182 W/m² | - |
| 1777469165 | 18.33° C | 99% | 1008.8 hPa | 0 mm | - | 221 W/m² | - |
* Rain latest hour (hover to see other rain measurements)
** Current wind speed in m/s (hover to see current wind gust speed)